Location: Unspecified
(50.7693°N, 0.0000°E)
Time: 07:01:54
(UTC+00:00)

Transit 2A - Pass Details

Date: 18 August 2020
Orbit: 591 x 967 km, 66.7° (Epoch: 20 September)

Event Time Altitude Azimuth Distance (km) Brightness Sun altitude
Rises 01:27:48 0° 321° (NW) 3,665 9.9 -23.7°
Reaches altitude 10° 01:30:32 10° 328° (NNW) 2,717 9.2 -23.5°
Maximum altitude 01:36:40 45° 40° (NE) 1,277 7.5 -23.1°
Drops below altitude 10° 01:42:31 10° 112° (ESE) 2,597 8.8 -22.7°
Sets 01:45:04 0° 119° (ESE) 3,489 9.4 -22.5°
